Regional Weather Roundup
Issued by NWS State College, PA

Home | Current Version | Previous Version | Graphics & Text | Print | Product List | Glossary On
Versions: 1 2 3 4 5 6 7 8 9 10 11 12 13 14 15 16 17 18 19 20 21 22 23 24 25 26 27 28 29 30 31 32 33 34 35 36 37 38 39 40 41 42 43 44 45 46 47 48 49 50
000
ASUS41 KCTP 201503
RWRCTP

REGIONAL WEATHER ROUNDUP
NATIONAL WEATHER SERVICE STATE COLLEGE PA
1100 AM EDT SUN APR 20 2014

Note: "fair" indicates few or no clouds below 12,000 feet with no
significant weather and/or obstructions to visibility.

* = STATION THAT DOES NOT REPORT PRECIPITATION /E.G. RAIN...SNOW...ETC/
    THUNDER OR FOG.

PAZ002>004-007>009-013>016-020>023-029>032-201600-
WESTERN PENNSYLVANIA

CITY           SKY/WX    TMP DP  RH WIND       PRES   REMARKS
ERIE           SUNNY     61  27  27 S12       30.33S
MEADVILLE      MOSUNNY   56  26  31 VRB3      30.34S
FRANKLIN*      MOSUNNY   55  27  33 SE9       30.36F
NEW CASTLE     FAIR      60  27  28 VRB6      30.34F
BEAVER COUNTY  NOT AVBL
BUTLER*        SUNNY     57  28  33 SE6       30.37S
PITTSBURGH INT PTSUNNY   59  25  27 SE7       30.33S
PITTSBURGH     SUNNY     59  25  27 E6        30.34S
INDIANA*       SUNNY     57  25  28 SE7       30.36F
LATROBE        SUNNY     59  27  29 E10       30.36S
WASHINGTON CO* SUNNY     59  28  31 SE8       30.35F
$$

PAZ004>006-010>012-017>019-024>028-033>037-041-042-045-046-049>053-201600-
CENTRAL PENNSYLVANIA

CITY           SKY/WX    TMP DP  RH WIND       PRES   REMARKS
BRADFORD       SUNNY     53  24  32 SE8       30.36F
DUBOIS         SUNNY     56  26  31 E10       30.35F
CLEARFIELD     SUNNY     55  26  32 E8        30.38F
JOHNSTOWN      SUNNY     52  24  33 S9        30.36S
ALTOONA        SUNNY     54  31  41 VRB6      30.40S
STATE COLLEGE  SUNNY     55  28  35 CALM      30.41F
WILLIAMSPORT   SUNNY     55  30  38 E6        30.43S
SELINSGROVE    SUNNY     56  31  38 CALM      30.44S
FT INDIANTOWN  NOT AVBL
CAPITAL CITY   SUNNY     55  36  48 SE13      30.45S
HARRISBURG     SUNNY     57  37  47 SE13      30.45R
YORK           SUNNY     56  35  45 E7        30.44R
$$

PAZ038>040-043-044-047-048-054-055-060>062-067>071-201600-
EASTERN PENNSYLVANIA

CITY           SKY/WX    TMP DP  RH WIND       PRES   REMARKS
SCRANTON       SUNNY     55  27  34 CALM      30.42F
MOUNT POCONO   SUNNY     48  27  44 SE12      30.43R
ALLENTOWN      LGT RAIN  55  33  43 E12       30.46S
QUAKERTOWN*    SUNNY     52  28  40 E8        30.47S
READING        SUNNY     56  36  47 SE10      30.45S
LANCASTER      SUNNY     54  33  45 E12       30.45R
COATESVILLE    SUNNY     54  27  35 SE10G21   30.45S
POTTSTOWN      SUNNY     52  31  44 NE13G20   30.47S
BLUE BELL      SUNNY     55  30  38 E8        30.46S
DOYLESTOWN     SUNNY     51  29  42 VRB3      30.46F
WILLOW GROVE   NOT AVBL
NORTH PHILA    MOSUNNY   54  28  36 E15G21    30.49S
PHILADELPHIA   PTSUNNY   54  30  40 E13       30.48S
$$



USA.gov is the U.S. government's official web portal to all federal, state and local government web resources and services.